DW4127 Weather Reports


Display with metric or nautical units.
time (UTC)temp
F
wind
direction
speed
MPH
gust
MPH
rain 1hr
in
rain 24hr
in
rain mn
in
humidity
%
barometer
mb
20260507051548 58 0.0 2.0 0.00 0.07 0.00 79 1016.2
20260507050548 58 0.0 2.0 0.00 0.07 0.00 79 1016.2
20260507045549 59 90 1.0 3.0 0.00 0.07 0.07 79 1016.3
20260507044549 59 0.0 2.0 0.00 0.07 0.07 78 1016.2
20260507043549 59 0.0 2.0 0.00 0.07 0.07 79 1016.3
20260507042549 59 0.0 2.0 0.00 0.07 0.07 79 1016.4
20260507041549 59 338 1.0 3.0 0.00 0.07 0.07 78 1016.8
20260507040549 59 0 3.0 10.0 0.00 0.07 0.07 78 1016.8
20260507035549 60 23 2.0 8.0 0.00 0.07 0.07 78 1016.7
20260507034549 60 23 2.0 5.0 0.00 0.07 0.07 79 1016.6
20260507033609 60 0 3.0 8.0 0.00 0.07 0.07 78 1016.7
20260507032549 60 338 2.0 8.0 0.00 0.07 0.07 79 1016.4
20260507031549 60 0 3.0 7.0 0.00 0.07 0.07 79 1016.4
20260507030549 60 315 2.0 6.0 0.00 0.07 0.07 79 1016.2
20260507025609 60 0 2.0 8.0 0.00 0.07 0.07 79 1015.9
20260507024549 60 338 2.0 8.0 0.00 0.07 0.07 79 1015.8
20260507023549 60 0 1.0 5.0 0.00 0.07 0.07 79 1015.7
20260507022549 60 338 1.0 4.0 0.00 0.07 0.07 79 1015.4
20260507021549 60 68 1.0 3.0 0.00 0.07 0.07 79 1015.3
20260507020609 60 0 1.0 4.0 0.00 0.07 0.07 79 1015.1
20260507015549 60 23 2.0 7.0 0.00 0.07 0.07 79 1014.9
20260507014549 60 0 1.0 5.0 0.00 0.07 0.07 80 1014.7
20260507013549 60 0 1.0 4.0 0.00 0.07 0.07 80 1014.4
20260507012549 60 0 2.0 4.0 0.00 0.07 0.07 80 1014.3
20260507011549 60 0 2.0 4.0 0.00 0.07 0.07 79 1014.1
20260507010549 60 338 1.0 3.0 0.00 0.07 0.07 80 1013.9
20260507005549 60 0 2.0 5.0 0.00 0.07 0.07 80 1013.9
20260507004549 60 0 1.0 5.0 0.00 0.07 0.07 80 1013.9
20260507003549 60 0 1.0 5.0 0.00 0.07 0.07 80 1013.6
20260507002549 60 0 1.0 4.0 0.00 0.07 0.07 79 1013.6
20260507001549 60 338 1.0 4.0 0.00 0.07 0.07 79 1013.5
20260507000549 60 23 1.0 3.0 0.00 0.07 0.07 79 1013.3
20260506235549 61 0 2.0 6.0 0.00 0.07 0.07 78 1013.3
20260506234549 61 23 1.0 2.0 0.00 0.07 0.07 78 1013.4
20260506233609 61 45 2.0 6.0 0.00 0.07 0.07 78 1013.1
20260506232549 61 0 1.0 3.0 0.00 0.07 0.07 78 1013.1
20260506231549 61 0 1.0 5.0 0.00 0.07 0.07 77 1012.9
20260506230549 61 0 4.0 9.0 0.00 0.07 0.07 76 1012.8
20260506225549 61 0 3.0 9.0 0.00 0.07 0.07 75 1012.7
20260506224549 61 0 2.0 5.0 0.00 0.07 0.07 76 1012.7
20260506223549 61 0 2.0 4.0 0.00 0.07 0.07 75 1012.8
20260506222549 61 0 1.0 5.0 0.00 0.07 0.07 75 1012.7
20260506221549 61 0 3.0 7.0 0.00 0.07 0.07 75 1012.8
20260506220549 62 23 2.0 5.0 0.00 0.07 0.07 75 1012.2
20260506215609 62 0 2.0 7.0 0.00 0.07 0.07 74 1012.3
20260506214549 62 338 2.0 10.0 0.00 0.07 0.07 74 1012.3
20260506213549 62 315 2.0 6.0 0.00 0.07 0.07 74 1012.4
20260506212549 62 0 2.0 8.0 0.00 0.07 0.07 74 1012.4
20260506211549 63 0 1.0 5.0 0.00 0.07 0.07 74 1012.5
20260506210549 63 0 3.0 8.0 0.00 0.07 0.07 74 1012.7
20260506205549 63 0 2.0 5.0 0.00 0.07 0.07 74 1012.6
20260506204549 61 23 3.0 8.0 0.00 0.07 0.07 75 1012.8
20260506203549 62 0 5.0 11.0 0.00 0.07 0.07 74 1013.0
20260506202609 63 23 2.0 8.0 0.00 0.07 0.07 75 1013.0
20260506201549 61 338 3.0 8.0 0.00 0.07 0.07 77 1013.1
20260506200609 61 338 2.0 8.0 0.00 0.07 0.07 77 1013.4
20260506195549 60 0 5.0 10.0 0.00 0.07 0.07 78 1013.2
20260506194609 59 338 3.0 7.0 0.00 0.07 0.07 80 1013.2
20260506193549 58 0 3.0 9.0 0.00 0.07 0.07 81 1013.4
20260506192729 58 0 3.0 6.0 0.00 0.07 0.07 81 1013.6
20260506191549 58 23 2.0 5.0 0.00 0.07 0.07 82 1013.7
20260506190549 57 0 3.0 5.0 0.00 0.07 0.07 82 1013.7
20260506185608 57 0 4.0 8.0 0.00 0.07 0.07 82 1013.7
20260506184548 58 338 2.0 5.0 0.00 0.07 0.07 82 1013.6
20260506183549 59 338 1.0 3.0 0.00 0.07 0.07 84 1013.1
20260506182548 57 0 3.0 8.0 0.00 0.07 0.07 84 1012.3
20260506181649 57 23 2.0 10.0 0.00 0.07 0.07 85 1012.1
20260506180548 56 0 5.0 15.0 0.00 0.07 0.07 85 1012.0
20260506175548 56 0 3.0 12.0 0.00 0.07 0.07 86 1012.1
20260506174548 56 0 4.0 12.0 0.00 0.07 0.07 86 1012.6
20260506173548 55 0 3.0 9.0 0.00 0.07 0.07 86 1012.8
20260506172548 56 0 2.0 5.0 0.00 0.07 0.07 87 1013.2
20260506171548 56 0 2.0 7.0 0.00 0.07 0.07 86 1013.1
20260506170549 55 0 4.0 11.0 0.00 0.07 0.07 85 1013.3
20260506165608 55 0 5.0 14.0 0.00 0.07 0.07 85 1012.8
20260506164548 55 0 4.0 10.0 0.01 0.07 0.07 85 1013.3
20260506163549 56 23 3.0 10.0 0.02 0.07 0.07 85 1013.3
20260506162549 56 0 5.0 11.0 0.07 0.07 0.07 85 1013.5
20260506161548 57 0 1.0 5.0 0.07 0.07 0.07 87 1013.7
20260506160549 56 45 1.0 4.0 0.07 0.07 0.07 86 1013.3
20260506155609 55 23 2.0 8.0 0.07 0.07 0.07 85 1013.1
20260506154549 55 0 3.0 7.0 0.06 0.06 0.06 85 1012.1
20260506153548 55 338 4.0 9.0 0.05 0.05 0.05 81 1014.6
20260506152548 55 23 2.0 5.0 0.00 0.00 0.00 81 1014.9
20260506151549 55 0 1.0 3.0 0.00 0.00 0.00 81 1014.6
20260506150549 55 338 2.0 5.0 0.00 0.00 0.00 80 1014.1
20260506145549 56 0 3.0 8.0 0.00 0.00 0.00 78 1013.2
20260506144549 55 0 4.0 11.0 0.00 0.00 0.00 78 1013.2
20260506143709 56 338 2.0 9.0 0.00 0.00 0.00 79 1013.6
20260506142548 55 0 4.0 9.0 0.00 0.00 0.00 79 1013.3
20260506141548 55 0 4.0 11.0 0.00 0.00 0.00 80 1013.1
20260506140548 55 338 5.0 13.0 0.00 0.00 0.00 80 1013.1
20260506135548 55 0 4.0 10.0 0.00 0.00 0.00 81 1012.5
20260506134608 55 0 4.0 9.0 0.00 0.00 0.00 81 1012.5
20260506133548 55 0 4.0 10.0 0.00 0.00 0.00 80 1012.6
20260506132548 55 0 3.0 8.0 0.00 0.00 0.00 80 1012.4
20260506131548 54 0 6.0 13.0 0.00 0.00 0.00 80 1012.1
20260506130548 55 0 5.0 10.0 0.00 0.00 0.00 80 1012.3
20260506125548 55 0 5.0 12.0 0.00 0.00 0.00 80 1012.0
20260506124608 55 0 5.0 11.0 0.00 0.00 0.00 79 1012.0
20260506123548 55 0 5.0 13.0 0.00 0.00 0.00 79 1012.0
20260506122548 55 0 6.0 12.0 0.00 0.00 0.00 78 1011.9
20260506121608 56 0 5.0 11.0 0.00 0.00 0.00 77 1011.6
20260506120548 56 0 4.0 11.0 0.00 0.00 0.00 76 1011.7
20260506115548 56 0 6.0 14.0 0.00 0.00 0.00 76 1011.6
20260506114548 56 0 3.0 8.0 0.00 0.00 0.00 76 1011.4
20260506113548 56 0 3.0 10.0 0.00 0.00 0.00 75 1011.0
20260506112548 56 0 4.0 10.0 0.00 0.00 0.00 75 1011.0
20260506111548 57 0 3.0 10.0 0.00 0.00 0.00 75 1011.0
20260506110548 57 0 6.0 12.0 0.00 0.00 0.00 74 1010.7
20260506105608 57 0 3.0 11.0 0.00 0.00 0.00 73 1010.6
20260506104548 58 0 4.0 9.0 0.00 0.00 0.00 73 1010.3
20260506103548 58 0 6.0 13.0 0.00 0.00 0.00 73 1010.1
20260506102548 58 0 3.0 10.0 0.00 0.00 0.00 73 1010.0
20260506101548 58 0 5.0 11.0 0.00 0.00 0.00 73 1009.7
20260506100608 59 0 3.0 8.0 0.00 0.00 0.00 73 1009.6
20260506095548 59 0 3.0 11.0 0.00 0.00 0.00 73 1009.6
20260506094548 59 23 5.0 11.0 0.00 0.00 0.00 73 1009.5
20260506093548 59 0 4.0 9.0 0.00 0.00 0.00 73 1009.5
20260506092548 59 0 4.0 9.0 0.00 0.00 0.00 73 1009.5
20260506091548 59 0 2.0 5.0 0.00 0.00 0.00 73 1009.3
20260506090548 59 0 2.0 6.0 0.00 0.00 0.00 73 1009.3
20260506085548 59 0 3.0 7.0 0.00 0.00 0.00 73 1009.2
20260506084548 60 0 2.0 7.0 0.00 0.00 0.00 73 1008.9
20260506083548 60 338 3.0 8.0 0.00 0.00 0.00 74 1009.0
20260506082548 60 0 3.0 6.0 0.00 0.00 0.00 74 1008.8
20260506081548 60 0.0 3.0 0.00 0.00 0.00 75 1008.5
20260506080548 60 338 3.0 6.0 0.00 0.00 0.00 74 1008.7
20260506072548 61 0 3.0 6.0 0.00 0.00 0.00 75 1008.7
20260506071548 61 338 2.0 9.0 0.00 0.00 0.00 74 1008.7
20260506070548 61 0 3.0 8.0 0.00 0.00 0.00 75 1008.9
20260506061608 62 338 4.0 10.0 0.00 0.00 0.00 75 1008.7
20260506060548 62 338 3.0 9.0 0.00 0.00 0.00 75 1008.5